Location: Tamazert
(32.6352°N, 5.2072°W)
Time: 07:33:00
(UTC+00:00)

Tiros 1 despin weight - Pass Details

Date: 14 October 2022
Orbit: 590 x 637 km, 48.2° (Epoch: 28 November)

Event Time Altitude Azimuth Distance (km) Brightness Sun altitude
Rises 16:18:24 0° 318° (NW) 2,843 ? 17.6°
Reaches altitude 10° 16:21:21 10° 338° (NNW) 1,948 ? 17.0°
Maximum altitude 16:24:22 18° 21° (NNE) 1,527 ? 16.4°
Drops below altitude 10° 16:27:25 10° 63° (ENE) 1,967 ? 15.8°
Sets 16:30:25 0° 83° (E) 2,881 ? 15.2°
